sat.trackr.live / text

‹ back to catalog

STARLINK-30472

NORAD 57901 · 2023-146L

PAYLOAD ACTIVE UNKNOWN

§ Identity

Operator
Country
US
Launch date
2023-09-20
Launch site
AFETR
Launch vehicle
Mass (kg)
RCS (m²)

Purposes: comms

External: N2YO · Heavens-Above · Gunter

§ Orbital elements

Epoch: 2026-09-20T09:09:14.339808Z

Period
94.27 min
Inclination
43.0019°
Eccentricity
0.0001035
Mean motion
15.27569460 rev/d
Perigee alt
482.4 km
Apogee alt
483.8 km
Semi-major
6,861.2 km
B*
3.4289e-6
RAAN
291.1186°
Arg perigee
263.2541°
Mean anomaly
96.8193°
Rev number
16,581

§ Raw data

STARLINK-304721 57901U 23146L   26263.38141597 -.00000168  00000+0  34289-5 0  99912 57901  43.0019 291.1186 0001035 263.2541  96.8193 15.27569460165813

JSON: /api/v1/satellites/57901 · /tle

For live sub-satellite position, see the globe view (requires WebGL).

§ Visibility from observer

Set your observer location to see the next 7 days of passes ≥ 10°. The values pass through the URL so the page stays shareable.

No JS? Fill the form by hand. The geolocation button needs JavaScript.